{"data":{"norad_id":67388,"epoch":"2026-05-25T01:14:39.313824Z","epoch_age_seconds":64339,"freshness":"FRESH","line1":"1 67388U 26004AB  26145.05184391  .00003979  00000+0  42012-3 0  9992","line2":"2 67388  97.8026 144.3424 0003551 134.0494 226.1016 14.89822276 19868","mean_motion":14.89822276,"eccentricity":0.0003551,"inclination_deg":97.8026,"raan_deg":144.3424,"arg_perigee_deg":134.0494,"mean_anomaly_deg":226.1016,"bstar":0.00042012,"rev_number":1986,"period_min":96.655824201141,"perigee_km":596.01304731656,"apogee_km":600.96784812993,"semimajor_km":6976.6274477232,"source":"CELESTRAK","updated_at":"2026-05-25T13:38:13.579625Z"}}